Weather History for Deadhorse, AK

Change the Weather History Date:

Wednesday, September 25, 2013

  Actual Average Record
Temperature  
Mean Temperature 24 °F -  
Max Temperature 30 °F 31 °F 48 °F (1998)
Min Temperature 17 °F 22 °F 11 °F (1992)
Degree Days  
Heating Degree Days 42    
Moisture  
Dew Point 24 °F    
Average Humidity 90    
Maximum Humidity 100    
Minimum Humidity 81    
Precipitation  
Precipitation 0.00 in - - ()
Sea Level Pressure  
Sea Level Pressure 29.58 in    
Wind  
Wind Speed 9 mph (SE)    
Max Wind Speed 17 mph    
Max Gust Speed -    
Visibility 10 miles    
Events      
Averages and records for this station are not official NWS values.
T = Trace of Precipitation, MM = Missing Value Source: NWS Daily Summary

Daily Weather History Graph

Daily Weather History Graph

Search for Another Location

Airport:

Trip Planner

Search our weather history database for the weather conditions in past years. The results will help you decide how hot, cold, wet, or windy it might be!

Date:

Astronomy

Sep. 25, 2013 Rise Set
Actual Time 7:47 AM AKDT 7:40 PM AKDT
Civil Twilight 6:45 AM AKDT 8:42 PM AKDT
Nautical Twilight 5:28 AM AKDT 9:58 PM AKDT
Astronomical Twilight 3:47 AM AKDT 11:36 PM AKDT
Moon 7:44 PM AKDT (9/25) 6:13 PM AKDT (9/25)
Length of Visible Light 13h 56m
Length of Day
11h 53m
Waning Gibbous, 62% of the Moon is Illuminated
Sep 25
Waning Gibbous
Sep 26
Last Quarter
Oct 4
New
Oct 11
First Quarter
Oct 18
Full

Hourly Weather History & Observations

Time (AKDT) Temp. Windchill Dew Point Humidity Pressure Visibility Wind Dir Wind Speed Gust Speed Precip Events Conditions
12:53 AM 19.0 °F 10.0 °F 14.0 °F 81% 29.80 in 10.0 mi SSE 6.9 mph - N/A   Clear
1:53 AM 17.1 °F 7.6 °F 14.0 °F 88% 29.78 in 10.0 mi SE 6.9 mph - N/A   Clear
2:53 AM 17.1 °F 7.6 °F 14.0 °F 88% 29.77 in 10.0 mi ESE 6.9 mph - N/A   Clear
3:53 AM 18.0 °F 7.7 °F 15.1 °F 88% 29.75 in 10.0 mi East 8.1 mph - N/A   Clear
4:53 AM 19.9 °F 10.1 °F 18.0 °F 92% 29.75 in 10.0 mi East 8.1 mph - N/A   Clear
5:53 AM 24.1 °F 11.5 °F 21.0 °F 88% 29.71 in 10.0 mi East 15.0 mph - N/A   Clear
6:53 AM 25.0 °F 13.6 °F 23.0 °F 92% 29.68 in 10.0 mi East 12.7 mph - N/A   Overcast
7:18 AM 26.6 °F 14.3 °F 24.8 °F 93% 29.66 in 10.0 mi East 16.1 mph - N/A   Overcast
7:53 AM 26.1 °F 13.1 °F 24.1 °F 92% 29.65 in 10.0 mi ESE 17.3 mph - N/A   Overcast
8:53 AM 28.0 °F 17.0 °F 26.1 °F 92% 29.62 in 10.0 mi East 13.8 mph - N/A   Overcast
9:24 AM 28.4 °F 17.0 °F 26.6 °F 93% 29.61 in 7.0 mi East 15.0 mph - N/A   Overcast
9:53 AM 28.0 °F 18.1 °F 26.1 °F 92% 29.60 in 10.0 mi East 11.5 mph - N/A   Mostly Cloudy
10:00 AM 26.6 °F 16.8 °F 26.6 °F 100% 29.59 in 10.0 mi East 10.4 mph - N/A   Mostly Cloudy
10:53 AM 28.0 °F 19.3 °F 26.1 °F 92% 29.57 in 10.0 mi East 9.2 mph - N/A   Overcast
11:02 AM 26.6 °F 19.1 °F 26.6 °F 100% 29.56 in 10.0 mi East 6.9 mph - N/A   Overcast
11:53 AM 28.0 °F 18.6 °F 26.1 °F 92% 29.53 in 10.0 mi ENE 10.4 mph - N/A   Overcast
12:17 PM 28.4 °F 21.2 °F 26.6 °F 93% 29.53 in 10.0 mi ESE 6.9 mph - N/A   Overcast
12:39 PM 28.4 °F 21.2 °F 26.6 °F 93% 29.52 in 10.0 mi ESE 6.9 mph - N/A   Overcast
12:53 PM 28.0 °F 22.8 °F 26.1 °F 92% 29.53 in 10.0 mi SE 4.6 mph - N/A   Overcast
1:53 PM 28.0 °F - 25.0 °F 88% 29.50 in 10.0 mi Calm Calm - N/A   Overcast
2:53 PM 28.0 °F - 25.0 °F 88% 29.52 in 10.0 mi Calm Calm - N/A   Overcast
3:53 PM 28.0 °F - 26.1 °F 92% 29.49 in 10.0 mi Calm Calm - N/A   Overcast
4:53 PM 28.0 °F 22.8 °F 26.1 °F 92% 29.48 in 10.0 mi South 4.6 mph - N/A   Overcast
5:53 PM 28.0 °F 21.7 °F 24.1 °F 85% 29.47 in 10.0 mi SW 5.8 mph - N/A   Overcast
6:53 PM 28.9 °F 21.9 °F 25.0 °F 85% 29.47 in 10.0 mi SW 6.9 mph - N/A   Overcast
7:53 PM 28.9 °F 21.9 °F 26.1 °F 89% 29.49 in 10.0 mi SW 6.9 mph - N/A   Overcast
8:28 PM 30.2 °F 22.6 °F 26.6 °F 86% 29.49 in 10.0 mi West 8.1 mph - N/A   Overcast
8:40 PM 30.2 °F 22.6 °F 26.6 °F 86% 29.49 in 10.0 mi West 8.1 mph - N/A   Overcast
8:53 PM 30.0 °F 22.4 °F 26.1 °F 85% 29.50 in 10.0 mi WSW 8.1 mph - N/A   Overcast
9:53 PM 30.0 °F 21.7 °F 26.1 °F 85% 29.50 in 10.0 mi WSW 9.2 mph - N/A   Overcast
10:53 PM 28.9 °F 21.1 °F 26.1 °F 89% 29.52 in 10.0 mi WSW 8.1 mph - N/A   Overcast
11:53 PM 28.0 °F 18.1 °F 26.1 °F 92% 29.55 in 10.0 mi West 11.5 mph - N/A   Overcast